Regional Weather Roundup
Issued by NWS

Home | Current Version | Previous Version | Text Only | Print | Product List | Glossary Off
Versions: 1 2 3 4 5 6 7 8 9 10 11 12 13 14 15 16 17 18 19 20 21 22 23 24 25 26 27 28 29 30 31 32 33 34 35 36 37 38 39 40 41 42 43 44 45 46 47 48 49 50

653
ASUS45 KPSR 201310
RWRAZ

ARIZONA HOURLY REGIONAL WEATHER ROUNDUP
NATIONAL WEATHER SERVICE PHOENIX AZ
600 AM MST FRI OCT 20 2017

NOTE: FAIR INDICATES FEW OR NO CLOUDS BELOW 12,000 FEET WITH NO
SIGNIFICANT WEATHER AND/OR OBSTRUCTIONS TO VISIBILITY.

AZZ001>003-036-201400-
NORTHWEST ARIZONA

CITY           SKY/WX    TMP DP  RH WIND       PRES   REMARKS
BULLHEAD CITY  CLEAR     68  32  26 SW6       29.70F
KINGMAN        CLEAR     55  32  41 SE10      29.82F
$$

AZZ004>008-015-016-018-201400-
NORTH CENTRAL ARIZONA

CITY           SKY/WX    TMP DP  RH WIND       PRES   REMARKS
GRAND CANYON   CLEAR     33  28  81 NE7       30.00R WCI  27
WILLIAMS       CLEAR     52  30  43 SW13G20   30.01S
PRESCOTT       CLEAR     55  35  47 SW8       29.96R
FLAGSTAFF      CLEAR     46  32  58 SW8       30.03R
PAYSON           N/A     48  34  57 CALM      30.00R
PAGE           CLEAR     60  36  40 S7        29.82F
$$

AZZ009>014-017-201400-
NORTHEAST ARIZONA

CITY           SKY/WX    TMP DP  RH WIND       PRES   REMARKS
WINSLOW        CLEAR     44  35  70 E8        29.95R
SAINT JOHNS    CLEAR     40  31  70 CALM      29.99F
WINDOW ROCK    CLEAR     30  25  81 CALM      30.03S
SHOW LOW       CLEAR     52  34  50 S14       30.03F
$$

AZZ540-542>544-546-548-201400-
GREATER PHOENIX AREA

CITY           SKY/WX    TMP DP  RH WIND       PRES   REMARKS
PHOENIX        PTCLDY    69  44  40 E7        29.78R
BUCKEYE        CLEAR     64  36  34 CALM      29.79R
GLENDALE       CLEAR     66  41  39 CALM      29.80
LUKE AFB       CLEAR     62  44  52 NE6       29.77R
DEER VALLEY    CLEAR     70  39  32 E9        29.79R
SCOTTSDALE     CLEAR     68  41  37 CALM      29.82R
MESA-GATEWAY   PTCLDY    64  37  36 SE6       29.82R
CHANDLER       CLEAR     64  39  39 NE5       29.80
$$

AZZ539-553-201400-
SOUTHWEST MARICOPA COUNTY AND PINAL COUNTY

CITY           SKY/WX    TMP DP  RH WIND       PRES   REMARKS
CASA GRANDE    NOT AVBL
$$

AZZ503-504-507>509-201400-
SOUTHEAST ARIZONA

CITY           SKY/WX    TMP DP  RH WIND       PRES   REMARKS
TUCSON         CLEAR     64  37  36 SE6       29.90R
DAVIS-MONTHAN  CLEAR     62  37  39 SE5       29.89R
RYAN FIELD     CLEAR     61  34  36 SE3       29.89
NOGALES        PTCLDY    61  36  39 CALM      29.97S
SIERRA VISTA   PTCLDY    69  29  22 S12G21    30.01S
DOUGLAS        PTCLDY    59  35  40 E8        30.00R
SAFFORD        CLEAR     66  45  46 E10       29.90S
$$

AZZ532-201400-
SOUTHWEST ARIZONA

CITY           SKY/WX    TMP DP  RH WIND       PRES   REMARKS
YUMA           CLEAR     70  50  49 SW5       29.77R
$$

CAZ041-043-047-048-061-525>527-560>570-201400-
SOUTHERN CALIFORNIA

CITY           SKY/WX    TMP DP  RH WIND       PRES   REMARKS
DOWNTOWN L.A.  LGT RAIN  66  63  90 CALM      29.91R FOG
L.A. AIRPORT   PTCLDY    64  59  83 W12       29.91R
SAN DIEGO      MOCLDY    67  61  81 SE5       29.96R
BURBANK        CLOUDY    63  57  81 W5        29.91S
ONTARIO        MOCLDY    63  56  78 W8        29.92R
RIVERSIDE      PTCLDY    62  59  90 CALM      29.92S
PALM SPRINGS   CLEAR     68  53  58 CALM      29.76R
EL CENTRO NAS  PTCLDY    73  53  49 W32G43    29.79R BLWGDUST
IMPERIAL       PTCLDY    72  54  53 W25G40    29.76R
BLYTHE         CLEAR     63  47  55 CALM      29.73R
NEEDLES        CLEAR     69  31  24 SW3       29.72S
$$

NVZ020-UTZ003-201400-
SOUTHERN NEVADA-UTAH

CITY           SKY/WX    TMP DP  RH WIND       PRES   REMARKS
LAS VEGAS      PTCLDY    69  41  36 S16G28    29.67S
SALT LAKE CITY CLOUDY    63  35  35 S12       29.59F
$$

NMZ009-TXZ055-201400-
NEW MEXICO-WEST TEXAS

CITY           SKY/WX    TMP DP  RH WIND       PRES   REMARKS
ALBUQUERQUE    PTCLDY    50  46  86 SE3       30.03S
EL PASO        MOCLDY    58  52  80 CALM      30.01S
$$


........................KEY........................
SKY/WX - SKY CONDITION/WEATHER
TMP    - TEMPERATURE IN FAHRENHEIT
DP     - DEW POINT IN FAHRENHEIT
RH     - RELATIVE HUMIDITY IN PERCENT
WIND   - DIRECTION AND SPEED IN MILES PER HOUR (MPH)
VRB    - VARIABLE WIND DIRECTION
PRES   - MEAN SEA LEVEL PRESSURE IN INCHES OF MERCURY
         F - FALLING PRESSURE   R - RISING PRESSURE
         S - STEADY PRESSURE
VSB    - VISIBILITY IN MILES
HX     - HEAT INDEX IN FAHRENHEIT
WCI    - WIND CHILL INDEX IN FAHRENHEIT
TC     - TEMPERATURE IN CELSIUS WHICH IS ALSO KNOWN AS
         TEMPERATURE IN CENTIGRADE
AFB    - AIR FORCE BASE
         LUKE AFB IS LUKE AIR FORCE BASE
         DAVIS-MONTHAN IS DAVIS-MONTHAN AIR FORCE BASE
NAS    - NAVAL AIR STATION
         EL CENTRO NAS IS EL CENTRO NAVAL AIR STATION
N/A    - NOT AVAILABLE





USA.gov is the U.S. government's official web portal to all federal, state and local government web resources and services.